Lid_Strength_Index
1 2 1 1 1 2 2 2 3 3 3 3 3 3 2 2 2 4 5 4 6 9 9 8 7 8 8 8 11 12 11 14 13 13 16 18 19 19 20 15 18 18 23 22 25 24 23 10 11 14 12 12 12 13
1 1 2 1 1 2 2 2 3 3 3 2 3 2 3 3 2 2 8 4 4 6 8 6 5 4 4 4 7 9 10 15 11 12 14 16 20 20 21 20 11 18 16 19 17 16 9 7 10 9 11 12 12 13
1 1 1 1 1 2 2 2 3 3 2 2 2 3 3 3 3 3 6 4 5 7 9 10 10 7 4 3 4 8 10 8 8 8 12 13 15 15 22 21 18 15 15 14 13 10 9 8 8 8 8 10 10 11
1 1 1 1 2 2 2 2 3 3 2 2 3 3 3 3 2 3 5 5 5 8 14 14 8 8 5 3 4 4 5 7 7 8 11 13 15 11 16 13 14 13 12 15 13 10 9 9 8 8 7 7 8 10
1 1 1 1 2 2 2 3 3 3 3 2 3 3 3 3 3 7 6 3 3 7 15 15 12 10 6 6 5 5 4 6 8 11 11 14 12 10 12 12 15 11 12 13 14 9 10 9 8 7 8 8 9 11
1 1 1 1 1 2 3 3 3 3 3 3 3 3 2 2 4 10 14 7 3 3 9 18 13 14 11 8 7 8 6 5 7 9 11 10 10 9 14 20 11 9 9 8 9 7 7 7 7 7 8 9 8 11
1 1 2 2 2 3 3 3 3 3 3 3 2 2 2 2 8 10 13 8 2 2 8 16 17 13 12 9 9 10 7 9 10 12 12 11 11 8 13 20 10 9 8 8 7 7 9 7 9 8 8 8 9 11
2 2 2 2 2 3 3 3 3 3 3 3 3 3 3 3 5 9 6 2 2 7 9 14 16 16 12 12 16 13 12 13 13 16 16 18 15 12 14 11 9 8 8 8 7 7 7 6 8 9 9 10 12 12
2 2 2 2 3 3 3 3 3 3 3 3 4 5 8 11 15 13 3 4 5 6 16 17 20 19 14 13 15 15 12 16 16 16 16 15 21 16 15 13 12 13 14 13 13 12 14 11 10 10 10 11 14 13
2 2 2 3 3 3 4 3 3 3 3 5 10 14 18 16 6 7 14 12 13 17 14 18 21 17 13 19 20 16 20 20 20 17 15 17 15 12 17 18 19 19 22 24 19 16 19 16 14 12 12 14 15 16
2 2 2 3 3 4 3 3 3 5 8 14 19 18 14 9 12 22 23 22 25 20 19 22 19 17 13 18 18 15 23 24 20 20 19 26 22 18 17 17 15 16 18 21 25 24 21 20 19 17 16 18 17 17
2 2 3 3 4 4 3 3 3 10 13 13 14 15 18 21 24 23 29 30 25 23 25 21 19 17 17 14 13 19 20 22 22 22 20 22 18 18 22 19 17 20 23 25 28 24 23 22 21 21 21 21 20 20
2 3 3 4 4 3 3 3 5 6 9 15 18 21 21 26 25 26 28 26 27 29 25 21 18 16 18 14 15 18 19 20 20 22 20 18 16 16 17 19 19 24 25 25 24 25 24 24 24 23 22 22 22 22
3 3 4 4 3 3 3 4 5 8 14 19 21 23 24 28 28 27 26 25 21 23 24 20 19 16 18 15 15 18 16 17 20 22 20 18 17 17 17 16 22 21 23 26 25 25 25 25 24 24 24 23 23 25
3 4 4 4 3 3 3 3 6 13 17 20 21 24 27 26 29 31 36 31 24 24 20 19 20 16 18 17 15 16 18 20 19 20 19 17 16 17 17 18 19 24 24 27 28 26 24 25 25 25 25 25 25 26
3 4 7 3 3 3 3 6 9 15 21 22 26 23 34 28 25 31 34 25 22 19 18 17 17 19 21 19 19 20 20 21 22 21 19 18 19 19 18 20 22 25 30 29 25 26 25 25 26 26 27 27 27 27
5 10 4 4 4 4 5 10 12 22 20 24 22 34 25 27 21 24 25 22 16 17 17 17 19 20 17 19 20 21 24 23 22 22 20 20 21 20 20 24 28 28 29 27 25 25 25 25 25 26 28 28 29 29
10 7 4 3 5 7 11 13 18 22 21 26 21 22 28 28 28 26 26 21 18 18 18 17 16 19 20 21 22 23 23 23 22 22 21 20 19 20 22 24 28 29 27 25 25 25 25 25 27 28 28 28 29 29
8 5 4 4 8 13 14 15 18 20 21 26 27 27 31 29 27 26 25 21 21 18 16 17 20 21 23 23 25 25 25 24 24 22 21 19 19 21 23 24 24 25 26 27 27 27 26 26 27 27 27 28 29 30
4 4 4 4 7 15 19 20 20 22 22 21 27 26 28 26 27 28 25 22 19 20 21 22 24 25 25 25 25 25 24 23 24 24 22 20 20 21 22 23 23 25 26 26 26 26 27 28 28 28 28 29 30 32
7 5 4 7 12 16 21 21 22 24 25 23 29 25 26 26 26 24 24 23 22 26 25 27 26 25 24 25 24 24 24 24 25 24 24 23 22 25 26 26 26 26 27 27 29 29 29 30 29 29 29 30 30 30
11 7 11 11 14 18 14 17 20 24 24 26 22 26 29 26 27 25 25 27 28 29 29 27 26 26 27 26 25 25 25 25 24 24 24 25 27 27 27 27 27 28 28 28 28 29 29 29 28 29 30 31 30 31
10 12 14 19 18 18 21 20 21 25 23 25 29 26 28 29 26 25 28 31 31 30 29 28 28 27 27 25 24 25 26 26 27 26 26 26 26 26 26 26 26 27 28 28 27 28 28 28 28 29 29 30 31 32
13 20 19 19 23 23 22 22 25 29 29 27 26 26 28 30 27 27 27 32 32 32 29 28 28 27 26 25 26 27 27 26 26 26 27 26 27 27 27 27 27 27 27 27 28 28 28 29 29 30 30 32 33 35
19 23 23 25 25 23 25 24 26 26 27 33 30 27 29 33 27 29 27 31 34 35 33 29 28 28 28 28 27 27 26 27 27 28 28 27 26 26 27 28 28 28 27 28 29 29 30 30 31 33 34 35 36 39
26 27 23 27 26 25 29 25 28 26 33 27 29 33 36 31 27 27 32 33 35 35 33 31 31 30 28 28 28 29 28 28 27 27 29 29 29 26 26 27 29 30 31 29 29 31 33 34 35 36 38 41 39 41
29 29 29 27 26 27 26 27 28 29 30 29 31 31 31 29 29 30 35 35 34 33 31 30 30 29 29 28 27 27 27 28 29 30 30 31 32 32 30 28 29 32 34 33 34 34 34 36 38 39 41 45 48 44
30 33 27 29 30 31 30 31 28 28 31 36 33 29 27 28 27 33 34 35 36 32 30 29 28 28 27 26 25 25 26 27 27 29 32 33 36 36 38 36 34 29 35 36 35 35 37 37 38 41 41 41 43 43
31 30 29 31 31 32 32 29 29 32 35 36 31 32 32 36 38 36 35 36 38 33 28 27 26 26 25 24 25 28 31 34 33 35 36 37 37 34 39 41 39 38 37 32 28 34 37 39 40 40 42 40 42 44
29 27 29 29 29 30 30 32 32 36 40 39 39 36 36 37 37 41 39 38 35 33 31 30 28 27 26 27 30 30 36 42 40 34 34 35 34 40 43 42 40 40 38 35 32 32 28 35 35 39 39 39 39 39
25 25 27 30 31 33 33 35 37 38 42 41 44 36 36 39 35 39 39 39 39 37 30 27 26 29 31 32 35 34 33 39 43 43 44 37 40 43 43 42 41 41 39 37 38 38 38 38 41 41 39 40 41 40
26 27 32 34 35 34 35 34 36 37 40 36 35 41 37 35 33 35 35 37 34 32 29 29 29 31 34 37 39 41 36 42 42 39 38 36 41 43 42 42 42 40 37 37 39 38 39 39 40 40 41 41 41 42
23 23 27 32 33 34 34 32 34 34 35 37 36 41 41 35 32 34 35 37 34 33 31 31 32 35 38 40 42 42 40 43 39 28 31 32 34 36 42 43 41 38 36 37 38 38 38 39 40 41 41 41 41 42